Flag for U.S.A. Weather past 2 weeks in Dickinson, North Dakota, U.S.A.

Now
52 °F

Clear.


Feels Like: 49 °F
Forecast: 38 / 56 °F
Wind: 9 mph from South

Location: Dickinson Municipal Airport

Current Time: Mar 31, 2015 at 10:02:05 PM

Latest Report: Mar 31, 2015 at 8:56 PM


Visibility: 10 mi

Pressure: 29.55 "Hg

Humidity: 40%

Dew point: 28 °F

Location of DickinsonLocation

Historic Weather in Dickinson — Graph

°F

Dickinson temperature yesterday

Maximum temperature yesterday: 66 °F (at 1:56 PM)
Minimum temperature yesterday: 37 °F (at 9:56 PM)
Average temperature yesterday: 51 °F

Past Weeks' High & Low Weather Summary

 TemperatureHumidityPressure
High78 °F (Mar 28, 2:56 PM)93% (Mar 21, 6:56 AM)30.60 "Hg (Mar 21, 6:56 AM)
Low16 °F (Mar 17, 5:56 AM)13% (Mar 31, 3:56 PM)29.43 "Hg (Mar 28, 4:56 PM)
Average39 °F67%30.02 "Hg
* Reported Mar 16 7:56 PM — Mar 31 7:56 PM, Dickinson, Weather by CustomWeather, © 2015

Note: Actual official high and low records may vary slightly from our data, if they occured in-between our weather recording intervals... More about our weather records

Advertising

Dickinson weather history for previous 24 hours

 ConditionsComfort  
Time TempWeatherWind HumidityBarometerVisibility
7:56 PM
Tue, Mar 31
55 °FClear.7 mph35%29.57 "Hg10 mi
6:56 PM64 °FSunny.7 mph28%29.59 "Hg10 mi
5:56 PM71 °FSunny.8 mph22%29.59 "Hg10 mi
4:56 PM76 °FSunny.13 mph14%29.59 "Hg10 mi
3:56 PM77 °FSunny.15 mph13%29.61 "Hg10 mi
2:56 PM78 °FSunny.15 mph14%29.64 "Hg10 mi
1:56 PM78 °FSunny.14 mph16%29.65 "Hg10 mi
12:56 PM73 °FSunny.7 mph19%29.70 "Hg10 mi
11:56 AM69 °FSunny.13 mph24%29.74 "Hg10 mi
10:56 AM64 °FSunny.12 mph30%29.78 "Hg10 mi
9:56 AM58 °FSunny.14 mph36%29.82 "Hg10 mi
8:56 AM50 °FSunny.14 mph48%29.84 "Hg10 mi
7:56 AM42 °FSunny.9 mph65%29.87 "Hg10 mi
6:56 AM35 °FSunny.12 mph75%29.89 "Hg10 mi
5:56 AM32 °FClear.9 mph79%29.90 "Hg10 mi
4:56 AM31 °FClear.6 mph79%29.90 "Hg10 mi
3:56 AM34 °FClear.6 mph73%29.92 "Hg10 mi
2:56 AM34 °FClear.6 mph70%29.93 "Hg10 mi
1:56 AM42 °FClear.7 mph55%29.93 "Hg10 mi
12:56 AM43 °FClear.6 mph56%29.93 "Hg10 mi
11:56 PM
Mon, Mar 30
40 °FClear.7 mph60%29.94 "Hg10 mi
10:56 PM40 °FClear.5 mph63%29.95 "Hg10 mi
Weather by CustomWeather, © 2015

See weather overviewHow to use our weather pages